This is the latest recevied weather packets stored in our database for station/object K4DNM. If no packets are shown the sender has not sent any weather packets the latest 10 day(s).
| Time | Temp. | Humidity | Pressure | Rain* | Wind** | Luminosity | Snow |
|---|---|---|---|---|---|---|---|
| 1778179452 | 17.78° C | 95% | 1007.3 hPa | 0 mm | - | 46 W/m² | - |
| 1778179149 | 18.33° C | 94% | 1006.9 hPa | 0 mm | - | 39 W/m² | - |
| 1778178852 | 18.89° C | 94% | 1006.6 hPa | 0 mm | - | 51 W/m² | - |
| 1778178552 | 20.56° C | 92% | 1006.7 hPa | 0 mm | - | 19 W/m² | - |
| 1778178313 | 21.67° C | 96% | 1006.6 hPa | 0 mm | - | 208 W/m² | - |
| 1778177952 | 21.67° C | 97% | 1006.5 hPa | 0.25 mm | - | 356 W/m² | - |
| 1778177652 | 21.11° C | 96% | 1006.7 hPa | 0.25 mm | - | 199 W/m² | - |
| 1778177352 | 21.11° C | 97% | 1006.8 hPa | 0.25 mm | - | 128 W/m² | - |
| 1778177112 | 21.11° C | 96% | 1006.8 hPa | 0.25 mm | - | 114 W/m² | - |
| 1778176752 | 21.11° C | 96% | 1006.7 hPa | 0.25 mm | - | 95 W/m² | - |
| 1778176450 | 21.11° C | 96% | 1006.7 hPa | 0.25 mm | - | 119 W/m² | - |
| 1778176197 | 21.11° C | 97% | 1006.5 hPa | 0.25 mm | - | 107 W/m² | - |
| 1778175836 | 21.11° C | 97% | 1006.6 hPa | 0.25 mm | - | 90 W/m² | - |
| 1778175521 | 21.11° C | 97% | 1006.4 hPa | 0.25 mm | - | 300 W/m² | - |
| 1778175208 | 21.11° C | 97% | 1006.4 hPa | 0.25 mm | - | 261 W/m² | - |
| 1778174908 | 20.56° C | 97% | 1006.5 hPa | 0.25 mm | - | 266 W/m² | - |
| 1778174607 | 20.56° C | 97% | 1006.6 hPa | 0.25 mm | - | 159 W/m² | - |
| 1778174306 | 20.56° C | 97% | 1006.6 hPa | 0.25 mm | - | 120 W/m² | - |
| 1778174007 | 20.56° C | 98% | 1006.8 hPa | 0.25 mm | - | 80 W/m² | - |
| 1778173707 | 20.56° C | 98% | 1007 hPa | 0 mm | - | 92 W/m² | - |
| 1778173407 | 20.56° C | 98% | 1007.3 hPa | 0 mm | - | 99 W/m² | - |
| 1778173091 | 20.56° C | 98% | 1007.5 hPa | 0 mm | - | 125 W/m² | - |
| 1778172790 | 20.56° C | 98% | 1007.7 hPa | 0.25 mm | - | 100 W/m² | - |
| 1778172551 | 20.56° C | 98% | 1007.8 hPa | 0.25 mm | - | 100 W/m² | - |
| 1778172191 | 20.56° C | 98% | 1007.8 hPa | 0.25 mm | - | 154 W/m² | - |
* Rain latest hour (hover to see other rain measurements)
** Current wind speed in m/s (hover to see current wind gust speed)